Location: Bühlhof
(48.7849°N, 8.6361°E)
Time: 21:58:00
(UTC+00:00)

Cosmos 2360 Rocket - Pass Details

Date: 19 January 2026
Orbit: 834 x 842 km, 71.0° (Epoch: 7 February)

Event Time Altitude Azimuth Distance (km) Brightness Sun altitude
Rises 18:47:46 0° 336° (NNW) 3,394 5.6 -26.7°
Reaches altitude 10° 18:51:02 10° 355° (N) 2,457 4.7 -27.3°
Enters shadow 18:52:15 14° 5° (N) 2,193 4.3 -27.5°
